User: anonymous   Login
Location: Burgerwiesen
(48.6500°N, 15.6167°E)
Time: 12:30:37
(UTC+00:00)
Language:

SJ-11-01 - Orbit

View from above orbital plane
View from above orbital plane
View from above satellite
View from above satellite

Ground track
Ground track

The orbit data is extracted from the following two-line orbital elements,

1 36088U 09061A   20191.06928188  .00000033  00000-0  16224-4 0  9991
2 36088  97.9895 223.2336 0012105  14.3457 345.8097 14.60158249567765
Epoch (UTC): 09 July 2020 01:39:45
Eccentricity: 0.0012105
inclination: 97.9895°
perigee height: 684 km
apogee height: 701 km
right ascension of ascending node: 223.2336°
argument of perigee: 14.3457°
revolutions per day: 14.60158249
mean anomaly at epoch: 345.8097°
orbit number at epoch: 56776

The dashed part of the orbit path shows where the satellite is in the earth's shadow,  

DLR